Location: Champignol
(48.8087°N, 2.5056°E)
Time: 16:43:42
(UTC+00:00)

Daily predictions for brighter satellites

Satellite Brightness Start Highest point End
(mag) Time Altitude Azimuth Time Altitude Azimuth Time Altitude Azimuth
STARLINK-1030 3.6 17:54:46 10° WSW 17:58:54 86° SSE 18:03:04 10° ENE
STARLINK-30 4.1 17:55:00 10° W 17:58:56 51° N 18:02:52 10° ENE
Cosmos 1943 Rocket 2.5 17:54:22 10° SW 17:59:56 71° WNW 18:05:29 10° NNE
Cosmos 1725 Rocket 4.3 17:54:14 10° SSW 18:00:25 76° W 18:06:40 10° N
Cosmos 2297 Rocket 3.7 17:56:38 10° N 18:00:29 18° NE 18:04:19 10° E
STARLINK-72 4.1 17:56:40 10° W 18:00:36 50° N 18:04:32 10° ENE
CSL-04 Debris 4.3 17:55:30 10° SSE 18:00:51 59° ENE 18:06:16 10° N
Cosmos 1666 Rocket 4.0 17:56:37 10° SSW 18:01:04 70° W 18:05:33 10° N
Cosmos 1933 Rocket 3.9 17:57:33 10° SSE 18:01:41 41° E 18:05:48 10° NNE
SKYMED 2 3.5 17:57:35 10° NNE 18:01:56 72° ESE 18:06:16 10° S
STARLINK-50 4.1 17:58:20 10° W 18:02:15 50° N 18:06:12 10° ENE
STARLINK-1020 3.6 17:59:44 10° WSW 18:03:53 90° NNW 18:08:02 10° ENE
STARLINK-59 4.2 18:00:06 10° W 18:04:01 49° N 18:07:58 10° ENE
STARLINK-56 4.2 18:01:39 10° W 18:05:35 49° N 18:09:31 10° ENE
STARLINK-73 4.2 18:03:19 10° W 18:07:14 49° N 18:11:10 10° ENE
STARLINK-1010 3.8 18:04:58 10° W 18:08:08 42° N 18:11:17 10° ENE
Cosmos 1340 2.6 18:04:38 10° S 18:08:23 69° E 18:12:08 10° NNE
STARLINK-1052 3.7 18:04:42 10° WSW 18:08:51 85° NNW 18:13:02 10° ENE
STARLINK-38 4.2 18:05:01 10° W 18:08:56 48° N 18:12:52 10° ENE
NOAA 11 4.2 18:03:56 10° SSE 18:09:21 75° ENE 18:14:47 10° NNW
Cosmos 1346 Rocket 2.8 18:05:32 10° S 18:09:25 56° E 18:13:17 10° NNE
STARLINK-65 4.2 18:06:39 10° W 18:10:34 48° N 18:14:30 10° ENE
STARLINK-1063 4.4 18:06:54 10° SSW 18:10:40 35° SE 18:14:24 10° ENE
STARLINK-1047 3.7 18:07:00 10° WSW 18:11:11 83° NNW 18:15:23 10° ENE
Cosmos 1937 Rocket 4.1 18:06:40 10° N 18:11:35 38° ENE 18:16:24 10° SE
STARLINK-53 4.2 18:08:26 10° W 18:12:20 47° N 18:16:15 10° ENE
Cosmos 1464 Rocket 4.5 18:06:46 10° SSE 18:12:33 39° E 18:18:24 10° NNE
Genesis I 4.4 18:10:50 10° NNW 18:14:08 25° NE 18:17:06 11° E
USA 238 DEB 4.5 18:08:48 10° NW 18:15:20 38° NNE 18:21:53 11° E
USA 238 4.5 18:08:53 10° NW 18:15:26 38° NNE 18:21:56 11° E
STARLINK-1064 4.3 18:11:47 10° SSW 18:15:37 37° SE 18:19:12 11° ENE
ADEOS Rocket 3.7 18:08:05 10° NNE 18:15:41 52° E 18:23:01 10° S
STARLINK-1033 3.7 18:14:40 10° WSW 18:18:49 78° NNW 18:22:50 11° ENE
Cosmos 2227 Rocket 3.6 18:15:36 10° N 18:19:50 21° NE 18:23:25 12° E
STARLINK-1041 4.2 18:16:42 10° SSW 18:20:35 40° SE 18:23:59 13° ENE
Meteor 1-20 Rocket 4.3 18:15:45 10° SSE 18:21:01 51° E 18:26:25 10° NNE
NOSS 3-1 (C) 4.2 18:17:05 10° WSW 18:22:38 51° NW 18:29:09 10° NE
Cosmos 1656 Rocket 3.6 18:18:54 10° SSW 18:24:24 74° ESE 18:30:02 10° NNE
STARLINK-1038 4.1 18:21:35 10° SW 18:25:31 43° SE 18:28:45 14° ENE
STARLINK-1024 3.8 18:24:40 10° WSW 18:28:49 71° NNW 18:32:25 13° ENE
STARLINK-1046 4.0 18:26:31 10° SW 18:30:29 46° SE 18:33:32 16° ENE
STARLINK 1040 3.8 18:28:15 10° WNW 18:30:51 32° N 18:32:39 16° NE
H-2A R/B 2.7 18:26:36 10° SE 18:31:31 36° ENE 18:36:28 10° N
STARLINK-22 4.0 18:30:59 10° WNW 18:34:07 38° N 18:36:16 17° ENE
Cosmos 2034 Rocket 4.3 18:29:25 10° SSE 18:35:05 40° E 18:40:45 10° NNE
STARLINK-1039 3.9 18:31:29 10° SW 18:35:29 50° SE 18:38:21 18° ENE
STARLINK-41 3.9 18:32:30 10° WNW 18:35:37 38° N 18:37:41 18° ENE
STARLINK-1016 4.0 18:33:12 10° WNW 18:36:26 39° N 18:38:43 17° ENE
Cosmos 220 Rocket 4.5 18:33:48 10° S 18:37:46 37° ESE 18:41:43 10° NE
Meteor 1-18 Rocket 4.3 18:32:10 10° N 18:38:05 68° ENE 18:43:52 10° SSE
STARLINK-1008 4.0 18:34:52 10° WNW 18:38:06 39° N 18:40:20 17° ENE
STARLINK-1032 3.9 18:34:40 10° W 18:38:48 65° NNW 18:41:59 16° ENE
COSMOS 2487 3.1 18:35:36 10° NNW 18:39:01 56° WSW 18:42:23 10° S
STARLINK-75 3.9 18:36:52 10° WNW 18:40:04 39° N 18:41:58 20° ENE
STARLINK-1045 3.8 18:36:24 10° SW 18:40:26 53° SSE 18:43:07 20° ENE
STARLINK-58 4.1 18:37:46 10° WNW 18:41:10 40° N 18:43:17 19° ENE
STARLINK-24 4.2 18:37:18 10° WNW 18:41:11 45° N 18:43:52 18° ENE
Cosmos 1470 Rocket 4.3 18:37:25 10° SSW 18:41:43 57° WNW 18:46:06 10° N
STARLINK-1025 4.0 18:39:03 10° WNW 18:42:17 39° N 18:44:21 19° ENE
STARLINK-62 4.0 18:39:30 10° WNW 18:42:53 40° N 18:44:55 20° ENE
STARLINK-43 3.5 18:40:02 10° WNW 18:43:43 69° SSW 18:46:22 18° SE
STARLINK-1011 3.9 18:39:39 10° W 18:43:46 62° NNW 18:46:45 18° ENE
STARLINK-1017 4.0 18:41:09 10° WNW 18:44:23 39° N 18:46:21 20° ENE
STARLINK-34 4.0 18:41:07 10° WNW 18:44:30 40° N 18:46:29 21° ENE
Timation 2 Rocket 4.2 18:38:19 10° NNW 18:45:15 82° ENE 18:52:08 10° SSE
OPS 8737 4.4 18:41:25 10° SW 18:45:23 86° NW 18:48:02 14° NE
STARLINK-1050 3.7 18:41:22 10° SW 18:45:26 59° SSE 18:47:58 22° ENE
STARLINK-1035 4.0 18:41:18 10° W 18:45:31 60° NNW 18:48:33 18° ENE
Lacrosse 5 rocket 2.4 18:41:18 10° NW 18:45:33 37° NNE 18:48:11 20° ENE
STARLINK-1031 4.0 18:41:42 10° W 18:45:46 58° NNW 18:48:37 18° ENE
Okean 1 3.2 18:42:15 10° N 18:46:17 70° E 18:50:14 10° SSE
HJ-1C 3.2 18:43:05 10° SSE 18:46:23 75° ENE 18:49:42 10° N
Okean 1-7 2.9 18:42:59 10° N 18:47:20 81° ENE 18:51:42 10° SSE
Cosmos 468 Rocket 4.0 18:42:15 10° S 18:47:28 62° ESE 18:52:44 10° NNE
Cosmos 2219 3.8 18:43:15 10° NNW 18:48:39 40° NE 18:52:15 19° ESE
STARLINK-1036 4.0 18:44:39 10° W 18:48:46 60° NNW 18:51:32 20° ENE
COSMO-SKYMED 1 4.1 18:45:53 10° N 18:49:56 39° WNW 18:53:58 10° SW
STARLINK-1055 3.7 18:46:18 10° SW 18:50:23 63° SSE 18:52:44 24° ENE
STARLINK-1048 4.0 18:47:31 10° WNW 18:50:47 39° N 18:52:29 23° NE
Cosmos 192 4.2 18:47:05 10° S 18:51:56 68° ESE 18:56:49 10° NNE
STARLINK-81 4.2 18:48:03 10° WNW 18:51:56 44° N 18:54:10 22° ENE
Cosmos 405 3.1 18:48:36 10° NNW 18:52:10 75° W 18:55:42 10° S
Cosmos 1092 Rocket 4.4 18:46:27 10° N 18:52:25 40° ENE 18:58:20 10° SE
Lacrosse 5 2.2 18:47:51 10° SSW 18:52:40 44° SE 18:55:38 22° ENE
STARLINK-1049 4.0 18:49:40 10° WNW 18:52:56 39° N 18:54:32 24° NE
STARLINK-1044 4.0 18:49:40 10° W 18:53:46 58° NNW 18:56:20 21° ENE
STARLINK-54 4.2 18:49:55 10° WNW 18:53:48 45° N 18:55:56 23° ENE
MOS 1 4.3 18:48:36 10° SE 18:54:07 57° ENE 18:59:39 10° N
STARLINK-1051 4.0 18:51:51 10° WNW 18:55:07 39° N 18:56:37 25° NE
STARLINK-77 4.2 18:51:22 10° WNW 18:55:16 44° N 18:57:20 24° ENE
STARLINK-1022 3.6 18:51:15 10° SW 18:55:21 67° SSE 18:57:31 27° ENE
STARLINK-1027 4.2 18:52:02 10° W 18:56:13 55° NNW 18:58:47 22° ENE
Meteor 2-4 Rocket 4.0 18:50:44 10° N 18:56:31 51° ENE 19:02:16 10° SSE
STARLINK-1028 4.0 18:53:31 10° WNW 18:56:47 39° N 18:58:14 25° NE
STARLINK-25 4.2 18:53:02 10° WNW 18:56:55 45° N 18:58:55 24° ENE
Cosmos 2263 Rocket 4.4 18:56:52 10° NNE 18:57:34 10° NNE 18:58:17 10° NNE
Meteor 1-14 Rocket 4.1 18:52:39 10° S 18:58:07 67° E 19:03:41 10° NNE
STARLINK-71 4.2 18:54:55 10° WNW 18:58:48 45° N 19:00:42 26° ENE
STARLINK-1021 4.0 18:55:43 10° WNW 18:59:00 39° N 19:00:21 26° NE
Gbstr 26 Del rocket 3.0 18:55:28 10° WSW 18:59:31 72° SSE 19:02:07 26° ENE
STARLINK-79 4.2 18:56:22 10° WNW 19:00:15 45° N 19:02:07 26° ENE
USA 234 4.0 18:55:21 16° ENE 19:00:18 44° N 19:06:24 10° WNW
STARLINK-1042 3.6 18:56:13 10° SW 19:00:20 72° SSE 19:02:20 29° ENE
STARLINK-1019 4.0 18:57:56 10° WNW 19:01:12 39° N 19:02:28 28° NE
Cosmos 1814 Rocket 4.5 18:56:52 10° SSE 19:01:27 34° ESE 19:06:05 10° NE
Cosmos 2369 Rocket 3.8 18:56:35 10° WSW 19:01:46 35° NW 19:07:01 10° NNE
STARLINK-78 4.2 18:58:03 10° WNW 19:01:56 45° N 19:03:43 27° ENE
STARLINK-1012 4.0 19:00:10 10° WNW 19:03:27 39° N 19:04:37 29° NE
STARLINK-1037 4.1 18:59:35 10° W 19:03:40 55° NNW 19:05:48 25° NE
STARLINK-57 4.2 18:59:48 10° WNW 19:03:42 45° N 19:05:24 28° ENE
Cosmos 44 Rocket 3.6 18:59:22 10° NW 19:04:04 64° SW 19:08:48 10° SSE
Cosmos 1703 Rocket 4.2 19:00:13 10° NNW 19:04:38 59° W 19:09:01 10° S
Cosmos 1898 Rocket 3.9 18:59:30 10° NNW 19:04:39 66° WSW 19:09:47 10° S
Cosmos 1602 3.6 19:00:53 10° S 19:04:45 85° E 19:08:38 10° N
STARLINK-49 4.2 19:01:21 10° WNW 19:05:15 45° N 19:06:53 29° ENE
STARLINK-1056 3.5 19:01:11 10° WSW 19:05:19 76° SSE 19:07:07 32° ENE
USA 186 1.9 19:05:54 41° NE 19:05:54 41° NE 19:08:10 10° N
SJ 16-02 1.8 19:01:29 10° NNW 19:05:51 63° WSW 19:10:10 10° S
NOSS 3-2 (A) 4.1 18:58:43 10° NW 19:05:52 57° NE 19:10:56 24° ESE
STARLINK-48 3.4 19:02:24 10° WNW 19:06:19 70° NNE 19:07:38 39° E
STARLINK-27 4.2 19:03:00 10° WNW 19:06:53 45° N 19:08:28 29° ENE
Cosmos 841 Rocket 3.7 19:02:37 10° S 19:07:27 43° ESE 19:12:20 10° NE
Cosmos 1763 Rocket 3.4 19:02:35 10° SSW 19:07:48 75° ESE 19:13:07 10° NNE
STARLINK-1026 4.0 19:04:36 10° WNW 19:07:54 39° N 19:08:53 31° NE
STARLINK-1023 4.0 19:04:56 10° WNW 19:08:03 38° N 19:08:53 32° NE
STARLINK-74 4.2 19:04:41 10° WNW 19:08:34 45° N 19:10:04 30° NE
STARLINK-1059 4.1 19:04:41 10° W 19:08:44 53° NNW 19:10:41 28° NE
Meteor 1-19 Rocket 4.2 19:03:02 10° NNW 19:08:52 88° W 19:14:29 10° S
NOSS 3-2 (C) 4.4 19:02:40 10° NW 19:09:34 47° NE 19:13:51 26° E
Cosmos 2298 Rocket 4.3 19:04:30 10° NNW 19:09:41 47° ENE 19:12:02 29° ESE
STARLINK-1013 4.0 19:06:52 10° WNW 19:10:09 39° N 19:11:03 32° NE
STARLINK-39 4.2 19:06:19 10° WNW 19:10:13 45° N 19:11:38 31° NE
STARLINK-1054 3.5 19:06:07 10° WSW 19:10:16 80° SSE 19:11:52 36° ENE
ARGOS 3.1 19:05:07 10° SSE 19:10:27 62° ENE 19:15:50 10° N
Resurs 01 Rocket 2.9 19:11:23 23° NE 19:11:23 23° NE 19:14:21 10° N
STARLINK-26 3.1 19:08:06 10° WNW 19:11:34 70° NNE 19:12:15 52° E
STARLINK-31 4.2 19:08:02 10° WNW 19:11:55 45° N 19:13:16 32° NE
STARLINK-61 3.9 19:08:27 10° WNW 19:12:17 50° NNE 19:13:23 38° ENE
STARLINK-1009 4.0 19:09:06 10° WNW 19:12:24 40° N 19:13:12 34° NE
STARLINK-1057 4.2 19:09:41 10° W 19:13:45 52° N 19:15:28 30° NE
STARLINK-69 4.2 19:09:53 10° WNW 19:13:47 46° N 19:15:02 34° NE
Cosmos 1869 Rocket 3.5 19:10:02 10° S 19:14:26 89° ESE 19:18:50 10° N
Cosmos 2208 Rocket 4.1 19:09:17 10° S 19:14:32 54° ESE 19:19:45 10° NNE
STARLINK-1015 4.0 19:11:23 10° WNW 19:14:40 40° N 19:15:23 35° NE
ARGOS Delta rocket 3.7 19:13:10 29° SE 19:15:09 52° ENE 19:19:33 10° N
STARLINK-1062 3.5 19:11:05 10° WSW 19:15:15 85° SSE 19:16:39 40° ENE
STARLINK-21 4.2 19:11:22 10° WNW 19:15:16 46° N 19:16:28 34° NE
Meteor 1-11 Rocket 4.2 19:10:34 10° SSE 19:15:29 33° E 19:20:23 10° NNE
SPOT 3 Rocket 3.7 19:13:10 26° SE 19:15:51 50° ENE 19:20:53 10° N
STARLINK-45 4.1 19:13:15 10° WNW 19:17:10 46° N 19:18:15 36° NE
CENTAUR R/B 3.5 19:11:08 10° NW 19:18:31 47° NE 19:22:39 28° E
STARLINK-70 4.1 19:14:48 10° WNW 19:18:43 46° N 19:19:45 37° NE
STARLINK-1034 4.2 19:14:41 10° W 19:18:44 51° N 19:20:14 33° NE
STARLINK-1014 4.0 19:16:31 10° WNW 19:19:52 40° N 19:20:28 36° NNE
STARLINK-1053 3.5 19:16:05 10° WSW 19:20:13 89° S 19:21:26 45° ENE
STARLINK-76 4.1 19:16:20 10° WNW 19:20:15 46° N 19:21:13 38° NE
Cosmos 389 Rocket 4.0 19:17:56 10° N 19:19:48 23° NNE 19:19:48 23° NNE
STARLINK-23 4.1 19:18:00 10° WNW 19:21:55 47° N 19:22:49 39° NE
STARLINK-80 3.4 19:18:35 10° WNW 19:22:25 73° SSW 19:23:11 53° SE
STARLINK-32 4.1 19:19:38 10° WNW 19:23:33 47° N 19:24:23 40° NE
STARLINK-1068 4.2 19:19:41 10° W 19:23:44 49° N 19:25:01 36° NE
STARLINK-1061 3.5 19:21:02 10° WSW 19:25:11 87° NNW 19:26:12 50° ENE
STARLINK-40 4.1 19:21:18 10° WNW 19:25:14 47° N 19:25:59 41° NE
CZ-2C R/B 3.2 19:19:44 10° SSE 19:25:32 80° ENE 19:31:10 10° NNW
Cosmos 2150 Rocket 4.1 19:21:07 10° NNW 19:26:30 59° ENE 19:28:22 38° ESE
STARLINK-44 4.1 19:22:58 10° WNW 19:26:53 47° N 19:27:35 42° NE
FREGAT/IRIS 3.2 19:29:02 50° WNW 19:29:02 50° WNW 19:31:22 10° NNW
STARLINK-37 4.0 19:24:45 10° WNW 19:28:41 48° N 19:29:16 44° NE
STARLINK-64 3.6 19:25:12 10° WNW 19:28:44 50° NNE 19:28:51 50° NNE
Cosmos 1570 Rocket 3.9 19:23:35 10° SSW 19:28:49 82° ESE 19:34:08 10° NNE
STARLINK-33 3.4 19:25:42 10° WNW 19:28:41 52° N 19:28:41 52° N
STARLINK-1067 3.6 19:26:01 10° WSW 19:30:11 83° NNW 19:31:00 56° NE
SJ-6B 2.5 19:29:19 52° SSE 19:30:11 85° E 19:34:02 10° NNW
STARLINK-36 4.0 19:26:16 10° WNW 19:30:11 48° N 19:30:44 44° NE
STARLINK-55 3.4 19:27:03 10° WNW 19:29:59 53° N 19:29:59 53° N
STARLINK-66 3.5 19:27:58 10° WNW 19:30:52 52° N 19:30:52 52° N
Cosmos 1125 Rocket 4.0 19:26:35 10° NNW 19:31:37 40° ENE 19:32:01 40° ENE
STARLINK-28 3.5 19:28:38 10° WNW 19:31:31 54° NNW 19:31:31 54° NNW
Okean 3 3.3 19:27:43 10° N 19:31:57 85° E 19:33:29 39° SSE
STARLINK-68 4.0 19:28:09 10° WNW 19:32:05 49° N 19:32:31 47° NNE
STARLINK-42 3.6 19:29:24 10° WNW 19:32:09 48° NNW 19:32:09 48° NNW
Ariane Rocket 3.7 19:28:12 10° S 19:33:11 54° W 19:38:13 10° NNW
ATLAS 3B R/B 3.5 19:27:20 10° NW 19:33:25 35° NNE 19:35:31 29° ENE
STARLINK-63 4.0 19:29:42 10° WNW 19:33:38 49° N 19:34:01 47° NNE
STARLINK-1060 4.2 19:29:42 10° W 19:33:44 48° N 19:34:34 41° NNE
Cosmos 540 Rocket 3.3 19:28:54 10° S 19:33:57 63° ESE 19:39:03 10° NNE
STARLINK-1029 4.1 19:31:27 10° WNW 19:34:05 36° NNW 19:34:05 36° NNW
STARLINK-1058 3.6 19:31:00 10° WSW 19:35:09 79° NNW 19:35:46 62° NE
STARLINK-35 4.0 19:31:15 10° WNW 19:35:11 49° N 19:35:31 47° NNE
STARLINK-1007 4.0 19:32:42 10° WNW 19:35:37 40° N 19:35:37 40° N
STARLINK-51 4.0 19:32:55 10° WNW 19:36:51 49° N 19:37:06 48° NNE
Cosmos 1627 Rocket 4.4 19:31:56 10° N 19:38:05 65° ENE 19:41:01 32° SSE
STARLINK-30 4.0 19:34:34 10° WNW 19:38:31 50° N 19:38:42 49° NNE
STARLINK-1030 4.2 19:34:44 10° W 19:38:46 47° N 19:39:23 43° NNE
STARLINK-1043 3.6 19:36:00 10° WSW 19:40:08 75° NNW 19:40:33 67° NNE
STARLINK-72 4.0 19:36:15 10° WNW 19:40:11 50° N 19:40:18 50° NNE
Meteor 1-13 Rocket 4.2 19:35:40 10° N 19:41:33 79° ENE 19:44:37 29° SSE
STARLINK-50 4.0 19:37:54 10° WNW 19:41:51 50° N 19:41:53 50° NNE
STARLINK-59 4.0 19:39:39 10° WNW 19:43:34 51° N 19:43:34 51° N
SL-08 RB Rocket 3.5 19:42:33 53° SSE 19:43:37 86° ENE 19:48:07 10° NNW
STARLINK-1020 4.2 19:39:44 10° W 19:43:45 47° N 19:44:09 45° NNE
APEX 4.0 19:39:41 10° SSW 19:44:47 81° ESE 19:51:12 10° NNE
STARLINK-1010 4.4 19:41:45 10° WNW 19:44:08 35° NNW 19:44:08 35° NNW
STARLINK-1065 3.6 19:40:48 10° WSW 19:44:56 72° NNW 19:45:09 70° N
STARLINK-56 4.0 19:41:13 10° WNW 19:45:04 51° N 19:45:04 51° N
Cosmos 2297 Rocket 2.1 19:39:54 10° NNW 19:45:35 71° ENE 19:46:50 53° ESE
STARLINK-73 4.0 19:42:53 10° WNW 19:46:39 51° N 19:46:39 51° N
CZ-2C R/B 3.6 19:42:28 10° NNE 19:47:09 72° ESE 19:51:52 10° S
STARLINK-38 4.0 19:44:33 10° WNW 19:48:16 51° N 19:48:16 51° N
STARLINK-1052 4.2 19:44:44 10° WNW 19:48:45 46° N 19:48:56 46° N
STARLINK-1063 3.7 19:45:57 10° WSW 19:50:04 69° NNW 19:50:05 69° NNW
STARLINK-65 4.1 19:46:11 10° WNW 19:49:50 51° N 19:49:50 51° N
STARLINK-1047 4.3 19:47:10 10° WNW 19:51:13 46° N 19:51:18 46° N
STARLINK-53 4.1 19:47:57 10° WNW 19:51:31 51° NNW 19:51:31 51° NNW
Genesis I 3.8 19:48:11 10° NW 19:51:56 49° WSW 19:52:02 48° SW
STARLINK-1064 3.9 19:50:57 10° WSW 19:54:52 65° NW 19:54:52 65° NW
Cosmos 2026 Rocket 3.8 19:49:52 10° N 19:56:05 81° E 19:58:21 41° SSE
ATLAS 2AS CENTAUR R/B 4.2 19:50:44 10° S 19:53:45 23° SSE 19:53:45 23° SSE
STARLINK-1033 4.4 19:54:44 10° WNW 19:58:29 45° NNW 19:58:29 45° NNW
Meteor 1-5 Rocket 4.1 19:53:46 10° S 19:59:16 88° WNW 20:05:02 10° NNE
STARLINK-1041 4.1 19:55:57 10° W 19:59:39 59° NW 19:59:39 59° NW
Cosmos 2227 Rocket 2.0 19:59:02 10° NNW 20:04:44 86° ENE 20:05:17 74° SE
STARLINK-1038 4.3 20:00:55 10° W 20:04:25 53° WNW 20:04:25 53° WNW
Cosmos 1674 Rocket 4.1 20:01:47 10° N 20:05:10 51° N 20:05:10 51° N
USA 238 DEB 3.8 19:59:47 10° NW 20:06:59 80° SW 20:09:21 47° SSE
USA 238 3.8 19:59:53 10° NW 20:07:05 80° SW 20:09:24 48° SSE
Meteor 1-23 Rocket 4.1 20:01:35 10° N 20:07:08 71° ENE 20:07:08 71° ENE
STARLINK-1046 4.5 20:05:57 10° W 20:09:13 48° WNW 20:09:13 48° WNW
H-2A R/B 3.4 20:05:50 10° SSW 20:10:52 39° W 20:16:00 10° NNW
Cosmos 2082 3.8 20:05:11 10° NNW 20:10:31 61° NE 20:10:31 61° NE
Resurs 1-3 4.4 20:22:00 48° WNW 20:22:00 48° WNW 20:25:31 10° NNW
Lacrosse 5 rocket 2.5 20:20:31 10° WNW 20:23:51 47° WNW 20:23:51 47° WNW
Cosmos 1655 Rocket 4.2 20:21:56 10° N 20:27:24 60° NNE 20:27:24 60° NNE
Cosmos 2142 Rocket 4.4 20:30:22 86° NW 20:30:22 86° NW 20:36:34 10° N
Cosmos 2219 4.2 20:27:29 10° NW 20:32:51 42° WSW 20:34:13 36° SW
Lacrosse 5 2.6 20:30:37 10° WSW 20:34:53 50° WNW 20:34:53 50° WNW
Cosmos 2279 Rocket 4.4 20:40:08 52° N 20:40:08 52° N 20:44:41 10° N
CZ-2C R/B 4.1 20:36:12 10° NNE 20:38:39 27° N 20:38:39 27° N
USA 234 3.4 20:42:41 59° NNE 20:42:44 59° NNE 20:49:07 10° NW
Cosmos 2263 Rocket 3.8 20:38:27 10° NNW 20:41:27 25° NNE 20:41:27 25° NNE
Resurs 01 Rocket 3.5 20:48:56 28° NW 20:48:56 28° NW 20:51:21 10° NNW
NOSS 3-2 (C) 4.2 20:53:34 10° NW 21:00:59 65° SW 21:01:19 64° SW
CENTAUR R/B 3.2 21:01:52 10° NW 21:09:50 70° SW 21:09:52 70° SW
ATLAS 3B R/B 3.4 21:18:00 10° NW 21:22:47 50° NW 21:22:47 50° NW
Cosmos 2297 Rocket 4.2 21:24:56 10° NW 21:28:41 21° W 21:28:41 21° W
